Regional Weather Roundup
Issued by NWS Sioux Falls, SD

Home | Current Version | Previous Version | Graphics & Text | Print | Product List | Glossary Off
Versions: 1 2 3 4 5 6 7 8 9 10 11 12 13 14 15 16 17 18 19 20 21 22 23 24 25 26 27 28 29 30 31 32 33 34 35 36 37 38 39 40 41 42 43 44 45 46 47 48 49 50

254
ASUS43 KFSD 240410
RWRFSD

WEATHER ROUNDUP FOR SE SOUTH DAKOTA/SW MINNESOTA/NW IOWA
NATIONAL WEATHER SERVICE SIOUX FALLS SD
1100 PM CDT SUN APR 23 2017

NOTE: "FAIR" INDICATES FEW OR NO CLOUDS BELOW 12,000 FEET WITH NO
SIGNIFICANT WEATHER AND OR OBSTRUCTIONS TO VISIBILITY.


SDZ038>040-050-052>070-240500-
SOUTHEAST SOUTH DAKOTA

CITY           SKY/WX    TMP DP  RH WIND       PRES   REMARKS
BROOKINGS      CLOUDY    58  32  37 S14       29.76F
CHAMBERLAIN    CLOUDY    64  32  29 SE18      29.64F
HURON          CLOUDY    61  31  32 S13       29.67F
MADISON        FAIR      54  32  43 S12       29.76F
MITCHELL       CLOUDY    60  33  36 S18       29.71F
SIOUX FALLS    CLOUDY    60  31  33 S16G25    29.79S
WINNER         FAIR      63  34  33 S22G30    29.64F
YANKTON        PTCLDY    59  30  33 S14       29.79S
$$

MNZ071-072-080-081-089-090-097-098-240500-
SOUTHWEST MINNESOTA

CITY           SKY/WX    TMP DP  RH WIND       PRES   REMARKS
FAIRMONT       CLEAR     52  34  50 S12       29.89F
JACKSON        PTCLDY    55  30  38 S10       29.87F
LUVERNE        PTCLDY    52  32  46 S10       29.82F
MARSHALL       PTCLDY    58  32  37 S13       29.78F
MONTEVIDEO     PTCLDY    54  36  50 SE10      29.78F
PIPESTONE      CLOUDY    55  27  33 S15       29.79F
REDWOOD FALLS  PTCLDY    57  31  37 S12       29.81F
TRACY          CLOUDY    59  33  36 S14G20    29.81S
WINDOM         CLOUDY    57  30  35 S9        29.85F
WORTHINGTON    CLOUDY    57  29  34 S15       29.85S
$$

IAZ001>003-012>014-020>022-031-032-NEZ013-014-SDZ071-240500-
NORTHWEST IOWA

CITY           SKY/WX    TMP DP  RH WIND       PRES   REMARKS
CHEROKEE       CLOUDY    51  34  51 S8        29.87F
DENISON        CLOUDY    55  32  41 S12G17    29.90F
ESTHERVILLE    CLOUDY    51  33  50 S12       29.88F
LE MARS        PTCLDY    57  30  35 S12       29.86F
ORANGE CITY    PTCLDY    54  34  47 S8        29.85F
SHELDON        CLOUDY    55  30  38 S16       29.83F
SIOUX CITY     CLOUDY    59  28  30 S13       29.86S
SPENCER        CLOUDY    50  34  54 MISG      29.87F
STORM LAKE     CLOUDY    50  32  50 S9        29.89S
$$

ABBREVIATIONS USED IN REMARKS
   TC - TEMPERATURE IN CELSIUS
  WCI - WIND CHILL INDEX
   HX - HEAT INDEX
  VSB - VISIBILITY





USA.gov is the U.S. government's official web portal to all federal, state and local government web resources and services.